[[{"header":{"parameterUnit":"m.s-1","parameterCategory":1,"la1":30.2991,"la2":30.254,"lo1":-89.0895,"lo2":-89.0444,"dy":0.0017,"dx":0.0017,"nx":28,"ny":28,"refTime":"2023-10-17T21:00:00:Z","depth":0,"parameterNumber":2,"parameterNumberName":"U-component_of_WINDS"},"data":[0,0,0,0,0,0,0,0,0,0,0,0,0,0,0,0,0,0,0,0,0,0,0,0,0,0,0,0,0,0,0,0,0,0,0,0,0,0,0,0,0,0,0,0,0,0,0,0,0,0,0,0,0,0,0,0,0,0,-1.1593,-1.1596,0,-1.1814,-1.1817,-1.1819,-1.1953,-1.1953,-1.1954,-1.1955,-1.2177,-1.2182,-1.2188,0,0,0,0,0,0,0,0,0,0,0,0,0,-1.1285,-1.129,-1.1593,-1.1596,-1.1599,-1.1814,-1.1817,-1.182,-1.1952,-1.1953,-1.1954,-1.1955,-1.2176,-1.2182,-1.2188,0,0,0,0,0,0,0,0,0,0,0,0,0,-1.1453,-1.1291,-1.1593,-1.1691,-1.1702,-1.1813,-1.1817,-1.1821,-1.1952,-1.1953,-1.1954,-1.1955,-1.2173,-1.2181,-1.2189,-1.2219,0,0,-1.2213,-1.2217,0,0,0,0,0,0,0,0,-1.1443,-1.1464,-1.1674,-1.1684,-1.1697,-1.1857,-1.179,-1.1954,-1.1952,-1.1857,-1.1955,-1.1956,-1.207,-1.2086,-1.2125,-1.2229,-1.2239,-1.2214,-1.2219,-1.2222,-1.2225,0,0,0,0,0,0,0,-1.1432,-1.1456,-1.1681,-1.1677,-1.1691,-1.1723,-1.1748,-1.1822,-1.1955,-1.1865,-1.1876,-1.19,-1.2076,-1.2117,-1.2132,-1.2242,-1.2214,-1.2221,-1.2226,-1.2229,-1.2383,-1.2383,0,0,0,0,0,0,-1.1405,-1.1445,-1.1674,-1.1687,-1.157,-1.1728,-1.1756,-1.1804,-1.1955,-1.1979,-1.1899,-1.1906,-1.2103,-1.2122,-1.214,-1.2186,-1.2222,-1.223,-1.2234,-1.2384,-1.2383,-1.2382,0,0,0,0,0,0,-1.1397,-1.1424,-1.1665,-1.1569,-1.1602,-1.1733,-1.1786,-1.1808,-1.185,-1.198,-1.2004,-1.1917,-1.2105,-1.2129,-1.2199,-1.2195,-1.2233,-1.2241,-1.2385,-1.2384,-1.2383,-1.2276,0,0,0,0,0,0,-1.1388,-1.142,-1.1433,-1.1568,-1.1607,-1.172,-1.1786,-1.1812,-1.1864,-1.1874,-1.2003,-1.2026,-1.2107,-1.2186,-1.2207,-1.2207,-1.2247,-1.2386,-1.2384,-1.2383,-1.2281,-1.2272,-1.2264,0,0,0,0,0,-1.1377,-1.1393,-1.1433,-1.146,-1.1626,-1.1719,-1.1741,-1.1836,-1.1863,-1.1877,-1.1961,-1.2021,-1.2192,-1.2192,-1.2217,-1.2219,-1.2386,-1.2385,-1.2383,-1.2284,-1.2273,-1.2264,0,0,0,0,0,0,-1.1253,-1.1413,-1.1459,-1.152,-1.1605,-1.1742,-1.1762,-1.1821,-1.19,-1.1906,-1.202,-1.2048,-1.2107,-1.2171,-1.2167,-1.2257,-1.2296,-1.2299,-1.2213,-1.2204,-1.2195,-1.2178,-1.2254,0,0,0,0,0,-1.1233,-1.1296,-1.1433,-1.1473,-1.1514,-1.163,-1.1675,-1.1741,-1.1833,-1.187,-1.1959,-1.2045,-1.2119,-1.2165,-1.224,-1.2291,-1.2321,-1.2305,-1.2296,-1.2289,-1.229,-1.2323,-1.2317,-1.2377,-1.2377,-1.2377,0,0,-1.1191,-1.1287,-1.132,-1.1451,-1.1525,-1.1588,-1.166,-1.1723,-1.177,-1.1879,-1.1951,-1.2019,-1.2124,-1.2185,-1.2216,-1.2239,-1.228,-1.2287,-1.228,-1.2285,-1.232,-1.2315,-1.2309,-1.2376,-1.2376,-1.2377,0,0,-1.1149,-1.1227,-1.127,-1.1344,-1.1455,-1.1533,-1.1543,-1.1672,-1.1722,-1.1797,-1.188,-1.1938,-1.2062,-1.2133,-1.2186,-1.2172,-1.2231,-1.2193,-1.2149,-1.218,-1.2175,-1.2172,-1.2167,-1.2164,-1.2194,-1.2194,-1.2194,0,-1.1083,-1.1182,-1.1284,-1.1344,-1.1399,-1.1502,-1.1547,-1.1613,-1.1742,-1.1778,-1.1802,-1.1962,-1.2039,-1.2119,-1.2116,-1.2155,-1.217,-1.2179,-1.2168,-1.2165,-1.2163,-1.216,-1.2158,-1.2189,-1.2189,-1.219,-1.219,0,-1.1096,-1.1163,-1.1184,-1.1309,-1.1367,-1.1418,-1.1528,-1.1575,-1.1636,-1.1711,-1.1786,-1.1883,-1.198,-1.2004,-1.2064,-1.2092,-1.2104,-1.2146,-1.2188,-1.215,-1.2149,-1.2149,-1.2181,-1.2183,-1.2185,-1.2186,0,0,-1.0979,-1.1161,-1.1167,-1.1226,-1.1358,-1.1412,-1.1468,-1.1564,-1.1602,-1.1688,-1.1738,-1.1842,-1.1883,-1.1943,-1.2012,-1.2038,-1.2022,-1.2079,-1.2083,-1.2065,-1.206,-1.2027,-1.2024,-1.2063,-1.2063,-1.2063,-1.2052,0,-1.0955,-1.1062,-1.1157,-1.1229,-1.1293,-1.1393,-1.1443,-1.1528,-1.16,-1.1665,-1.1744,-1.1816,-1.1865,-1.1902,-1.1933,-1.2017,-1.2023,-1.202,-1.211,-1.2112,-1.208,-1.2023,-1.1988,-1.1972,-1.2052,-1.2052,-1.2052,0,-1.0941,-1.1025,-1.1104,-1.1231,-1.1261,-1.1304,-1.1401,-1.1461,-1.1561,-1.1612,-1.1679,-1.1752,-1.1816,-1.1852,-1.1942,-1.1938,-1.1981,-1.2028,-1.203,-1.2041,-1.2078,-1.2032,-1.1969,-1.1967,-1.2052,-1.2052,-1.2052,0,-1.0848,-1.0981,-1.1046,-1.1092,-1.1242,-1.127,-1.1334,-1.1435,-1.1487,-1.1572,-1.1607,-1.1697,-1.1746,-1.1814,-1.1909,-1.1927,-1.1989,-1.2033,-1.2033,-1.203,-1.204,-1.2038,-1.1982,-1.2068,-1.2068,-1.2068,-1.2068,0,-1.0811,-1.0855,-1.1006,-1.1045,-1.1098,-1.1208,-1.1257,-1.1329,-1.1418,-1.1474,-1.1566,-1.1615,-1.1739,-1.1804,-1.1879,-1.1942,-1.1963,-1.2006,-1.2025,-1.1997,-1.1992,-1.2026,-1.2029,-1.2068,-1.2068,-1.2068,-1.2068,0,-1.0715,-1.0818,-1.0895,-1.1032,-1.1067,-1.11,-1.1217,-1.1259,-1.1337,-1.1406,-1.1428,-1.1551,-1.1632,-1.1734,-1.1847,-1.1898,-1.1953,-1.1983,-1.1919,-1.193,-1.1924,-1.1923,-1.1888,-1.1889,-1.1973,-1.1972,-1.1972,0,-1.0684,-1.0721,-1.0862,-1.0906,-1.0968,-1.1037,-1.1092,-1.1202,-1.1255,-1.1373,-1.14,-1.1489,-1.1565,-1.169,-1.1788,-1.1876,-1.1908,-1.189,-1.1922,-1.1893,-1.1908,-1.1904,-1.1909,-1.1881,-1.188,-1.1879,-1.1878,0,-1.0618,-1.0668,-1.0744,-1.0838,-1.09,-1.0979,-1.1062,-1.1093,-1.122,-1.1275,-1.1359,-1.1419,-1.1536,-1.1622,-1.1723,-1.1788,-1.1854,-1.1867,-1.1872,-1.1843,-1.1805,-1.1826,-1.1897,-1.1867,-1.1868,-1.1869,-1.187,-1.187,-1.0554,-1.0592,-1.0698,-1.0779,-1.0854,-1.093,-1.0976,-1.1061,-1.1134,-1.1239,-1.1299,-1.1382,-1.1483,-1.1625,-1.1688,-1.1754,-1.1779,-1.1785,-1.1787,-1.1786,-1.1777,-1.1795,-1.1773,-1.1773,-1.1774,-1.1774,-1.1774,0,-1.0493,-1.0567,-1.0641,-1.0755,-1.0819,-1.0878,-1.0973,-1.1023,-1.1095,-1.1184,-1.1258,-1.1356,-1.1441,-1.1547,-1.1639,-1.1672,-1.1704,-1.1692,-1.1691,-1.1705,-1.175,-1.1737,-1.1665,-1.1665,-1.1665,-1.1665,-1.1665,-1.1665,-1.0469,-1.0536,-1.0599,-1.0704,-1.0778,-1.0861,-1.091,-1.0981,-1.1053,-1.1158,-1.123,-1.1299,-1.1396,-1.1496,-1.1577,-1.1606,-1.1635,-1.1614,-1.1651,-1.1692,-1.1701,-1.171,-1.1699,-1.1619,-1.1619,-1.1601,-1.1601,-1.16]},{"header":{"parameterUnit":"m.s-1","parameterCategory":1,"la1":30.2991,"la2":30.254,"lo1":-89.0895,"lo2":-89.0444,"dy":0.0017,"dx":0.0017,"nx":28,"ny":28,"refTime":"2023-10-17T21:00:00:Z","depth":0,"parameterNumber":3,"parameterNumberName":"V-component_of_WINDS"},"data":[0,0,0,0,0,0,0,0,0,0,0,0,0,0,0,0,0,0,0,0,0,0,0,0,0,0,0,0,0,0,0,0,0,0,0,0,0,0,0,0,0,0,0,0,0,0,0,0,0,0,0,0,0,0,0,0,0,0,-0.0172,-0.0171,0,-0.014,-0.0139,-0.0139,-0.0148,-0.0149,-0.0149,-0.015,-0.0121,-0.0119,-0.0118,0,0,0,0,0,0,0,0,0,0,0,0,0,-0.0245,-0.0244,-0.0172,-0.0171,-0.0171,-0.014,-0.0139,-0.0139,-0.0148,-0.0149,-0.0149,-0.015,-0.0121,-0.012,-0.0118,0,0,0,0,0,0,0,0,0,0,0,0,0,-0.0213,-0.0243,-0.0172,-0.0172,-0.0171,-0.014,-0.0139,-0.0139,-0.0148,-0.0149,-0.015,-0.015,-0.0122,-0.012,-0.0118,-0.0086,0,0,-0.0111,-0.0111,0,0,0,0,0,0,0,0,-0.0215,-0.0211,-0.0172,-0.0172,-0.0171,-0.0149,-0.0154,-0.0121,-0.0147,-0.0157,-0.015,-0.0151,-0.013,-0.0127,-0.0119,-0.0084,-0.0083,-0.0111,-0.011,-0.0109,-0.0109,0,0,0,0,0,0,0,-0.0217,-0.0212,-0.0159,-0.0172,-0.0171,-0.0174,-0.0171,-0.0148,-0.0138,-0.0156,-0.0157,-0.0152,-0.013,-0.0121,-0.0118,-0.0083,-0.0111,-0.011,-0.0108,-0.0107,-0.002,-0.0019,0,0,0,0,0,0,-0.0219,-0.0214,-0.016,-0.0158,-0.0196,-0.0172,-0.0168,-0.0155,-0.0139,-0.0137,-0.0152,-0.0153,-0.0124,-0.0121,-0.0117,-0.0079,-0.0109,-0.0107,-0.0106,-0.0021,-0.002,-0.0019,0,0,0,0,0,0,-0.0221,-0.0214,-0.0162,-0.0186,-0.018,-0.017,-0.0155,-0.0154,-0.0145,-0.0135,-0.0134,-0.0144,-0.0125,-0.012,-0.0093,-0.0078,-0.0106,-0.0104,-0.0023,-0.0021,-0.002,-0.0001,0,0,0,0,0,0,-0.0223,-0.0215,-0.0202,-0.0186,-0.0178,-0.0137,-0.0154,-0.0153,-0.0141,-0.0142,-0.0128,-0.0126,-0.0125,-0.0096,-0.0091,-0.0075,-0.0103,-0.0024,-0.0022,-0.002,-0.0003,0.0001,0.0004,0,0,0,0,0,-0.0226,-0.0199,-0.0201,-0.0195,-0.0161,-0.0136,-0.0132,-0.0129,-0.014,-0.0127,-0.0121,-0.0127,-0.008,-0.0093,-0.0088,-0.0071,-0.0025,-0.0023,-0.002,-0.0005,0.0,0.0004,0,0,0,0,0,0,-0.0215,-0.0197,-0.0199,-0.0166,-0.0152,-0.0137,-0.0121,-0.0124,-0.0108,-0.0111,-0.011,-0.0106,-0.0079,-0.0072,-0.0087,-0.0039,-0.0054,-0.0051,-0.0044,-0.004,-0.0036,-0.0038,-0.0101,0,0,0,0,0,-0.0209,-0.0188,-0.0174,-0.0146,-0.0139,-0.0131,-0.012,-0.0119,-0.0106,-0.01,-0.0092,-0.0079,-0.0062,-0.005,-0.0034,-0.0002,0.0001,0.0012,0.0016,0.0019,0.0022,0.0039,0.0044,-0.0011,-0.0011,-0.0011,0,0,-0.0196,-0.0183,-0.0171,-0.0144,-0.0133,-0.0113,-0.0126,-0.0105,-0.009,-0.0097,-0.0071,-0.0064,-0.005,-0.0021,-0.0007,-0.0015,0.0038,0.0022,0.0024,0.0026,0.0042,0.0047,0.0052,-0.0009,-0.001,-0.001,0,0,-0.0162,-0.015,-0.0126,-0.0114,-0.0097,-0.0092,-0.0086,-0.007,-0.0066,-0.0039,-0.0044,-0.0027,0.0003,0.0013,0.0022,0.0061,0.0055,0.0066,0.0085,0.0102,0.0106,0.011,0.0124,0.0128,0.0069,0.0069,0.0069,0,-0.0149,-0.0117,-0.0113,-0.009,-0.0079,-0.0083,-0.0058,-0.0048,-0.0027,-0.0019,-0.0027,0.0011,0.002,0.0052,0.0061,0.0069,0.0075,0.0064,0.0106,0.011,0.0113,0.0126,0.0131,0.007,0.007,0.007,0.007,0,-0.0101,-0.0079,-0.0062,-0.004,-0.0026,-0.0003,0.0004,0.0017,0.0016,0.0022,0.0049,0.006,0.0079,0.0086,0.0086,0.0118,0.0113,0.0106,0.009,0.012,0.0132,0.0137,0.0072,0.0072,0.0071,0.0071,0,0,-0.0061,-0.0036,-0.0029,-0.0019,-0.0,0.0016,0.0039,0.0059,0.007,0.0085,0.0103,0.0129,0.0122,0.0133,0.0133,0.0148,0.0177,0.0138,0.0138,0.0145,0.0214,0.0219,0.0225,0.0174,0.0175,0.0176,0.0212,0,-0.0025,0.0016,0.0021,0.0058,0.0078,0.0074,0.0094,0.0107,0.0113,0.013,0.0136,0.0154,0.0144,0.015,0.0165,0.0171,0.0191,0.0168,0.019,0.0191,0.0187,0.0231,0.0237,0.0271,0.0217,0.0218,0.0218,0,0.0021,0.0039,0.0079,0.0095,0.0104,0.0122,0.0141,0.0157,0.0171,0.0175,0.0187,0.0185,0.0208,0.0192,0.0222,0.0207,0.0216,0.0221,0.0222,0.0224,0.0206,0.0234,0.0282,0.0286,0.0226,0.0225,0.0225,0,0.0047,0.0081,0.0109,0.0118,0.0138,0.015,0.0159,0.0173,0.0185,0.02,0.0208,0.0226,0.0235,0.0249,0.0252,0.024,0.0282,0.0267,0.0284,0.0284,0.0293,0.0292,0.0342,0.0299,0.0299,0.0299,0.0299,0,0.0086,0.011,0.0121,0.0138,0.0164,0.0169,0.0195,0.0202,0.0215,0.0232,0.023,0.0246,0.025,0.0266,0.0269,0.0293,0.0297,0.03,0.03,0.03,0.03,0.0306,0.0303,0.03,0.03,0.03,0.03,0,0.0118,0.0127,0.0157,0.0174,0.0179,0.0198,0.0212,0.0228,0.0234,0.0256,0.0262,0.027,0.029,0.0295,0.0318,0.0319,0.0348,0.0346,0.0344,0.0343,0.0361,0.0359,0.0416,0.0424,0.0376,0.0377,0.0377,0,0.0143,0.0161,0.0181,0.0194,0.0204,0.0223,0.0236,0.0241,0.0254,0.0272,0.0286,0.0305,0.0321,0.0352,0.036,0.0377,0.0376,0.0395,0.0378,0.0377,0.0375,0.0374,0.0376,0.0397,0.0398,0.0398,0.0399,0,0.0184,0.0188,0.0207,0.0228,0.0243,0.0259,0.0275,0.0284,0.0291,0.0306,0.0327,0.0339,0.0363,0.0383,0.04,0.0408,0.0404,0.0404,0.0409,0.0409,0.0406,0.0408,0.0352,0.0403,0.0402,0.0402,0.0402,0.0402,0.0213,0.023,0.0247,0.0268,0.0281,0.0295,0.0311,0.032,0.0338,0.0359,0.036,0.0383,0.0397,0.042,0.0429,0.0446,0.044,0.0447,0.0448,0.045,0.0452,0.0404,0.0449,0.0449,0.0449,0.0449,0.0448,0,0.0255,0.0266,0.0286,0.0308,0.0325,0.0322,0.0338,0.0352,0.0373,0.0386,0.0403,0.0427,0.0445,0.0455,0.0473,0.0485,0.0484,0.0489,0.0488,0.049,0.0456,0.045,0.049,0.049,0.049,0.049,0.049,0.049,0.0278,0.0307,0.0312,0.0346,0.0356,0.038,0.039,0.0403,0.0414,0.0441,0.0457,0.0464,0.0476,0.0495,0.0512,0.0514,0.0521,0.0527,0.0529,0.0497,0.0492,0.0488,0.0482,0.0529,0.0529,0.0561,0.0561,0.0562]}]]